星链-4570 (STARLINK-4570 )

导读 | 豆包AI

STARLINK-4570是美国太空探索技术公司星链互联网卫星星座中的一员,由美国于2022年8月31日发射。星链星座旨在为全球提供低延迟、高速率的卫星互联网服务,该卫星入轨后承担对地互联网信号传输任务,是星链大规模组网进程中补充的卫星节点,助力完善星座覆盖能力。

基本信息
目录编号:
53690
目录名称:
STARLINK-4570
国际标识:
2022-105AU
轨道中心:
EARTH
卫星名称:
星链-4570
卫星全名:
星链-4570 (STARLINK-4570 )
卫星状态:
在轨 (已飞行1337 天)
发射日期:
2022-08-31 UTC
国别 :
美国 (US)
星等 :
--
轨道信息
数据来源 国际轨道数据 AOE轨道数据
星历时间 2026-04-29T12:45:59+0800
8小时前
查看轨道信息
2026-04-23T01:00:00+0800
6天前
查看轨道信息
半长轴 6927.636km 6927.587km
偏心率 0.000308 0.0002652
轨道倾角 97.557° 97.598°
近地点辐角 59.789° 138.994°
升交点赤经 359.864° 353.502°
平近点角 300.364° 343.776°
近地点 547.365km 547.612km
远地点 551.633km 551.288km
周期 95.640分钟 95.638分钟
每日圈数 15.05654 15.056701
详细信息
固有亮度:
5
最大亮度:
2.5
卫星平台:
Starlink v1.5
覆盖范围:
全球
运营商:
太空探索技术公司
运营商所在国:
美国
制造商(研发单位):
太空探索技术公司
制造商所在国:
美国
使用方式:
暂无
卫星简介
星链(Starlink)计划是由太空探索技术公司(SpaceX)提出的一个巨型低轨卫星互联网星座项目,计划在2019年至2024年间在太空搭建由约1.2万颗卫星组成的“星链”网络,其中1584颗将部署在地球上空550千米处的近地轨道,并从2020年开始工作。该卫星仍在工作。
2D轨道图
3D轨道图
轨道高度分析图
轨道倾角分析图
轨道综合分析图
查看轨道综合分析图